Location: Laterina
(43.5167°N, 11.7167°E)
Time: 16:44:18
(UTC+00:00)

Meteor 1-21 - Pass Details

Date: 24 September 2020
Orbit: 845 x 887 km, 81.2° (Epoch: 25 October)

Event Time Altitude Azimuth Distance (km) Brightness Sun altitude
Rises 17:29:47 0° 348° (NNW) 3,420 7.6 -5.1°
Reaches altitude 10° 17:32:13 10° 348° (NNW) 2,478 6.9 -5.5°
Maximum altitude 17:37:50 84° 262° (W) 856 4.4 -6.5°
Drops below altitude 10° 17:43:25 10° 175° (S) 2,462 6.5 -7.6°
Sets 17:45:49 0° 174° (S) 3,396 7.2 -8.0°
